Home   Weather   Toledo   Past weeks

Flag for USA Past Weather in Toledo, Ohio, USA — Yesterday and Last 2 Weeks

Now
65 °F

Scattered clouds.


Feels Like: 65 °F
Forecast: 58 / 65 °F
Wind: 9 mph from East

Location: Toledo Suburban Airport

Current Time: Sep 29, 2016 at 1:05:48 PM

Latest Report: Sep 29, 2016 at 12:34 PM


Visibility: 10 mi

Pressure: 30.16 "Hg

Humidity: 72%

Dew Point: 56 °F

Location of ToledoLocation

Past Weather in Toledo — Graph

°F

Toledo Temperature Yesterday

Maximum temperature yesterday: 62 °F (at 3:34 PM)
Minimum temperature yesterday: 47 °F (at 12:54 AM)
Average temperature yesterday: 56 °F

High & Low Weather Summary for the Past Weeks

 TemperatureHumidityPressure
High87 °F (Sep 22, 4:14 PM)96% (Sep 16, 6:34 AM)30.30 "Hg (Sep 16, 6:34 AM)
Low47 °F (Sep 28, 12:54 AM)24% (Sep 27, 5:15 PM)29.75 "Hg (Sep 27, 3:54 PM)
Average66 °F75%30.07 "Hg
* Reported Sep 14 11:15 AM — Sep 29 11:55 AM, Toledo, Weather by CustomWeather, © 2016

Note: Actual official high and low records may vary slightly from our data, if they occured in-between our weather recording intervals... More about our weather records

Advertising

Toledo Weather History for the Previous 24 Hours

Scroll right to see more
 ConditionsComfort  
Time TempWeatherWind HumidityBarometerVisibility
11:55 AM
Thu, Sep 29
63 °FScattered clouds.3 mph81%30.16 "Hg10 mi
11:34 AM62 °FScattered clouds.5 mph83%30.16 "Hg10 mi
11:14 AM62 °FBroken clouds.3 mph85%30.15 "Hg10 mi
10:55 AM62 °FBroken clouds.No wind83%30.14 "Hg10 mi
10:34 AM61 °FBroken clouds.No wind83%30.13 "Hg10 mi
10:14 AM60 °FPartly sunny.No wind86%30.12 "Hg10 mi
9:55 AM60 °FSunny.5 mph86%30.11 "Hg10 mi
9:34 AM60 °FSunny.6 mph87%30.11 "Hg10 mi
9:14 AM60 °FSunny.3 mph92%30.10 "Hg7 mi
8:55 AM59 °FFog.6 mph94%30.09 "Hg5 mi
8:34 AM60 °FFog.No wind95%30.08 "Hg1 mi
8:14 AM60 °FFog.No wind95%30.07 "Hg1 mi
7:55 AM59 °FFog.No wind94%30.06 "Hg1 mi
7:34 AM59 °FFog.No wind94%30.05 "Hg3 mi
7:14 AM59 °FFog.No wind93%30.04 "Hg3 mi
6:55 AM59 °FFog.No wind94%30.03 "Hg3 mi
6:34 AM58 °FFog.No wind94%30.02 "Hg2 mi
6:14 AM59 °FFog.No wind93%30.02 "Hg3 mi
5:55 AM59 °FFog.No wind93%30.01 "Hg4 mi
5:34 AM59 °FFog.No wind94%30.00 "Hg4 mi
5:14 AM59 °FFog.No wind93%30.00 "Hg4 mi
4:55 AM59 °FFog.No wind92%30.00 "Hg5 mi
4:34 AM59 °FFog.No wind93%30.00 "Hg5 mi
4:14 AM59 °FLow clouds.No wind93%30.00 "Hg7 mi
3:55 AM59 °FLow clouds.No wind94%30.00 "Hg7 mi
3:34 AM59 °FMostly cloudy.No wind93%29.99 "Hg7 mi
3:14 AM59 °FMostly cloudy.No wind94%29.99 "Hg10 mi
2:54 AM59 °FLight rain. Mostly cloudy.No wind94%29.98 "Hg10 mi
2:35 AM59 °FRain. Mostly cloudy.No wind94%29.99 "Hg7 mi
2:14 AM58 °FLight rain. Mostly cloudy.3 mph94%29.99 "Hg10 mi
1:54 AM58 °FLight rain. Mostly cloudy.No wind93%30.00 "Hg10 mi
1:35 AM59 °FRain. Mostly cloudy.No wind93%29.99 "Hg7 mi
1:14 AM59 °FLight rain. Mostly cloudy.No wind92%30.01 "Hg10 mi
12:54 AM59 °FDrizzle. Overcast.No wind92%30.00 "Hg10 mi
12:35 AM59 °FLight rain. Overcast.3 mph93%30.01 "Hg7 mi
12:14 AM59 °FDrizzle. Mostly cloudy.No wind91%30.00 "Hg7 mi
11:54 PM
Wed, Sep 28
59 °FOvercast.No wind91%30.00 "Hg10 mi
11:34 PM59 °FLight rain. Mostly cloudy.No wind89%29.99 "Hg10 mi
11:14 PM59 °FLight rain. Overcast.3 mph89%29.98 "Hg10 mi
10:55 PM59 °FOvercast.6 mph93%29.98 "Hg7 mi
10:34 PM58 °FMostly cloudy.3 mph92%29.98 "Hg7 mi
10:14 PM59 °FMostly cloudy.No wind92%29.98 "Hg10 mi
9:55 PM58 °FLight rain. Overcast.5 mph92%29.98 "Hg7 mi
9:34 PM59 °FRain. Mostly cloudy.No wind88%29.98 "Hg7 mi
9:14 PM59 °FLight rain. Overcast.3 mph89%29.98 "Hg7 mi
8:55 PM60 °FHeavy rain. Mostly cloudy.No wind82%29.98 "Hg5 mi
8:34 PM61 °FLight rain. Overcast.6 mph81%29.98 "Hg10 mi
8:14 PM61 °FMostly cloudy.5 mph79%29.95 "Hg10 mi
7:55 PM62 °FMostly cloudy.6 mph79%29.95 "Hg10 mi
7:34 PM62 °FDrizzle. Mostly cloudy.3 mph77%29.95 "Hg10 mi
7:14 PM62 °FMore clouds than sun.5 mph80%29.95 "Hg10 mi
6:55 PM62 °FPartly sunny.3 mph80%29.94 "Hg10 mi
6:34 PM62 °FMore clouds than sun.3 mph79%29.94 "Hg10 mi
6:14 PM62 °FCloudy.No wind79%29.94 "Hg10 mi
5:55 PM62 °FCloudy.5 mph78%29.93 "Hg10 mi
5:34 PM62 °FPartly sunny.6 mph77%29.93 "Hg10 mi
5:14 PM62 °FScattered clouds.5 mph76%29.91 "Hg10 mi
4:55 PM62 °FScattered clouds.6 mph76%29.91 "Hg10 mi
4:34 PM61 °FMore clouds than sun.5 mph77%29.91 "Hg10 mi
4:14 PM61 °FMostly cloudy.6 mph78%29.91 "Hg10 mi
3:55 PM62 °FCloudy.3 mph77%29.91 "Hg10 mi
3:34 PM62 °FMore clouds than sun.3 mph77%29.89 "Hg10 mi
3:14 PM62 °FMostly cloudy.7 mph77%29.89 "Hg10 mi
2:55 PM61 °FPartly sunny.6 mph78%29.89 "Hg10 mi
2:34 PM61 °FMostly cloudy.3 mph80%29.88 "Hg10 mi
2:14 PM60 °FOvercast.5 mph80%29.89 "Hg10 mi
1:55 PM61 °FMostly cloudy.5 mph81%29.89 "Hg10 mi
1:34 PM59 °FMostly cloudy.6 mph84%29.89 "Hg10 mi
1:14 PM57 °FOvercast.No wind90%29.89 "Hg10 mi
Weather by CustomWeather, © 2016

See weather overviewHow to use our weather pages